Regional Weather Roundup
Issued by NWS

Home | Current Version | Previous Version | Text Only | Print | Product List | Glossary On
Versions: 1 2 3 4 5 6 7 8 9 10 11 12 13 14 15 16 17 18 19 20 21 22 23 24 25 26 27 28 29 30 31 32 33 34 35 36 37 38 39 40 41 42 43 44 45 46 47 48 49 50
000
ASUS43 KBIS 291602
RWRND

NORTH DAKOTA REGIONAL WEATHER ROUNDUP
NATIONAL WEATHER SERVICE BISMARCK ND
1100 AM CDT SUN MAY 29 2016

NOTE: "FAIR" INDICATES FEW OR NO CLOUDS BELOW 12,000 FEET WITH NO
SIGNIFICANT WEATHER AND/OR OBSTRUCTIONS TO VISIBILITY.


NDZ001>003-009>011-017-291700-
NORTHWEST NORTH DAKOTA

CITY           SKY/WX    TMP DP  RH WIND       PRES   REMARKS
WILLISTON      SUNNY     66  41  40 SW10      30.01S
MINOT          SUNNY     72  45  37 W10       29.97S
MINOT AFB      SUNNY     67  50  53 NW14      29.96S
$$

NDZ018>021-031>035-040>046-291700-
SOUTHWEST NORTH DAKOTA

CITY           SKY/WX    TMP DP  RH WIND       PRES   REMARKS
BISMARCK       SUNNY     69  52  54 W10       30.03S
DICKINSON      SUNNY     67  41  38 VRB3      30.03F
GARRISON         N/A     68  45  43 W14       30.00F
HETTINGER ARPT SUNNY     68  46  45 W8        30.07F
$$

NDZ004>008-012>016-024-026-027-054-291700-
NORTHEAST NORTH DAKOTA

CITY           SKY/WX    TMP DP  RH WIND       PRES   REMARKS
GRAND FORKS    CLOUDY    65  56  72 NW9       29.93S
GRND FRKS AFB  CLOUDY    65  56  73 N10       29.94R
DEVILS LAKE    SUNNY     67  53  61 W14       29.96R
$$

NDZ022-023-025-028>030-036>039-047>053-291700-
SOUTHEAST NORTH DAKOTA

CITY           SKY/WX    TMP DP  RH WIND       PRES   REMARKS
FARGO          CLOUDY    66  56  70 NW12      29.95R
JAMESTOWN      MOSUNNY   68  52  56 NW13      29.98S
$$





USA.gov is the U.S. government's official web portal to all federal, state and local government web resources and services.